Miscellaneous Local Product
Issued by NWS North Platte, NE

Home | Current Version | Previous Version | Text Only | Print | Product List | Glossary On
Versions: 1 2 3 4 5 6 7 8 9 10 11 12 13 14 15 16 17 18 19 20 21 22 23 24 25 26 27 28 29 30 31 32 33 34 35 36 37 38 39 40 41 42 43 44 45 46 47 48 49 50
000
AXUS43 KLBF 020810
MISLBF


WESTERN AND NORTH CENTRAL NEBRASKA HOURLY WEATHER ROUNDUP
NATIONAL WEATHER SERVICE NORTH PLATTE NE
300 AM CDT THU JUL 02 2015

***STATIONS NOT REPORTING VARIABLES SUCH AS SKY/WEATHER OR
PRESSURE ARE PROVIDED BY THE NEBRASKA DEPARTMENT OF
ROADS...RAWS...AND APRS NETWORKS...AND ARE NOT UNDER
NATIONAL WEATHER SERVICE QUALITY CONTROL***

...OBSERVATIONS IN AND NEAR THE EASTERN PANHANDLE OF NEBRASKA...

CITY           SKY/WX    TMP DP  RH WIND       PRES   REMARKS
PINE RIDGE     LGT RAIN  64  61  90 SW14      30.07F
CHADRON        LGT RAIN  62  59  90 S9        30.11F FOG
ALLIANCE       TSTM      58  56  93 NE18G28   30.16R FOG
SIDNEY         PTCLDY    62  59  90 S8        30.08F
WHITECLAY        N/A     62  61  96 S14         N/A
CRESCENT LAKE    N/A     60  51  71 N30G43      N/A
BIG SPRINGS      N/A     66  61  84 NE3         N/A
$$

...OBSERVATIONS IN NORTH CENTRAL NEBRASKA...

CITY           SKY/WX    TMP DP  RH WIND       PRES   REMARKS
VALENTINE      CLOUDY    65  64  97 W6        30.01R
BROKEN BOW     CLOUDY    70  67  90 CALM      29.98R FOG
VALENTINE NWR    N/A     64  64  99 NW6         N/A
SPRINGVIEW       N/A     66  64  93 CALM        N/A
HALSEY           N/A     64  62  95 CALM        N/A
ROSE             N/A     79  78  99 E3          N/A
NEWPORT          N/A     67  67  99 CALM        N/A
CHAMBERS         N/A     68  66  94 E5          N/A
EWING            N/A     67  65  95 CALM        N/A
$$

...OBSERVATIONS IN SOUTHWEST NEBRASKA AND FAR NORTHEAST COLORADO...

CITY           SKY/WX    TMP DP  RH WIND       PRES   REMARKS
WRAY           FAIR      68  56  65 NW9       30.00F
HOLYOKE        FAIR      68  55  64 W6        30.04S
IMPERIAL       MOCLDY    69  59  70 CALM      29.98S
NORTH PLATTE   CLOUDY    68  63  84 VRB5      29.98R
MCCOOK         CLOUDY    77  60  55 W10       29.94R
PAXTON           N/A     69  61  75 N3          N/A
GOTHENBURG       N/A     72  64  76 CALM        N/A
CALLAWAY         N/A     68  66  94 CALM        N/A
$$

...NORTH PLATTE AREA...

CITY           SKY/WX    TMP DP  RH WIND       PRES   REMARKS
AIRPORT        CLOUDY    68  63  84 VRB5      29.98R
DOWNTOWN         N/A     70  65  83 MISG        N/A
HILLCREST        N/A     68  64  88 NW6         N/A
$$

...SOME WEATHER OBSERVATIONS FROM AROUND THE REGION...

CITY           SKY/WX    TMP DP  RH WIND       PRES   REMARKS
DENVER         PTCLDY    65  54  67 SW9       30.08F
LARAMIE        CLEAR     51  49  92 E8        30.24S
CHEYENNE       CLEAR     60  53  77 W9        30.14S
SCOTTSBLUFF    TSTM      61  57  87 NE26G36   30.17R FOG
RAPID CITY     CLOUDY    63  61  93 SW6       30.03F
PIERRE         CLOUDY    68  66  93 S7        29.93S
WINNER         CLOUDY    69  63  81 SE3       29.97R
SIOUX FALLS    CLEAR     59  55  87 E6        29.98R
OMAHA          PTCLDY    67  60  78 E8        29.92F
GRAND ISLAND   MOCLDY    69  67  93 E8        29.93S
KANSAS CITY    CLOUDY    73  70  90 E9        29.85F
WICHITA        MOCLDY    78  72  81 NE12      29.83R
HAYS           MOCLDY    73  63  68 E5        29.88F
LIBERAL        CLOUDY    75  57  53 W10       29.97R
GOODLAND       PTCLDY    64  59  83 N8        30.01S
$$



USA.gov is the U.S. government's official web portal to all federal, state and local government web resources and services.